TimeCDT,TemperatureF,Dew PointF,Humidity,Sea Level PressureIn,VisibilityMPH,Wind Direction,Wind SpeedMPH,Gust SpeedMPH,PrecipitationIn,Events,Conditions,WindDirDegrees,DateUTC
12:01 AM,35.6,33.8,93,29.86,10.0,West,2.3,-,N/A,,Mostly Cloudy,260,2013-11-02 05:01:00
12:21 AM,35.6,33.8,93,29.86,10.0,WNW,1.2,-,N/A,,Overcast,300,2013-11-02 05:21:00
12:41 AM,35.6,33.8,93,29.87,10.0,West,5.8,-,N/A,,Overcast,270,2013-11-02 05:41:00
1:01 AM,37.4,35.6,93,29.88,10.0,West,4.6,-,N/A,,Overcast,270,2013-11-02 06:01:00
1:21 AM,37.4,35.6,93,29.88,10.0,WSW,3.5,-,N/A,,Overcast,250,2013-11-02 06:21:00
1:41 AM,39.2,35.6,87,29.88,10.0,WSW,3.5,-,N/A,,Overcast,250,2013-11-02 06:41:00
2:01 AM,37.4,37.4,100,29.89,10.0,West,4.6,-,N/A,,Overcast,270,2013-11-02 07:01:00
2:21 AM,39.2,37.4,93,29.89,10.0,West,6.9,-,N/A,,Overcast,270,2013-11-02 07:21:00
2:41 AM,39.2,37.4,93,29.90,10.0,West,8.1,-,N/A,,Overcast,280,2013-11-02 07:41:00
3:01 AM,39.2,37.4,93,29.90,10.0,WNW,6.9,-,N/A,,Overcast,300,2013-11-02 08:01:00
3:21 AM,39.2,37.4,93,29.90,10.0,NW,10.4,-,N/A,,Overcast,310,2013-11-02 08:21:00
3:41 AM,39.2,35.6,87,29.91,10.0,NW,10.4,-,N/A,,Mostly Cloudy,310,2013-11-02 08:41:00
4:01 AM,39.2,33.8,81,29.92,10.0,NW,9.2,17.3,N/A,,Scattered Clouds,310,2013-11-02 09:01:00
4:21 AM,37.4,33.8,87,29.93,10.0,NW,5.8,-,N/A,,Clear,320,2013-11-02 09:21:00
4:41 AM,35.6,33.8,93,29.93,10.0,NW,4.6,-,N/A,,Clear,310,2013-11-02 09:41:00
5:01 AM,35.6,33.8,93,29.94,10.0,WNW,5.8,-,N/A,,Clear,300,2013-11-02 10:01:00
5:21 AM,33.8,32.0,93,29.95,10.0,West,4.6,-,N/A,,Clear,280,2013-11-02 10:21:00
5:41 AM,33.8,32.0,93,29.95,10.0,West,4.6,-,N/A,,Clear,270,2013-11-02 10:41:00
6:01 AM,33.8,32.0,93,29.96,10.0,West,4.6,-,N/A,,Clear,270,2013-11-02 11:01:00
6:21 AM,33.8,32.0,93,29.97,10.0,West,5.8,-,N/A,,Clear,270,2013-11-02 11:21:00
6:41 AM,33.8,33.8,100,29.98,10.0,West,6.9,-,N/A,,Clear,280,2013-11-02 11:41:00
7:01 AM,33.8,33.8,100,29.98,10.0,WNW,8.1,-,N/A,,Clear,300,2013-11-02 12:01:00
7:21 AM,33.8,32.0,93,29.99,10.0,WNW,5.8,-,N/A,,Clear,290,2013-11-02 12:21:00
7:41 AM,33.8,32.0,93,29.99,10.0,WNW,6.9,-,N/A,,Clear,290,2013-11-02 12:41:00
8:01 AM,33.8,32.0,93,30.00,10.0,WNW,5.8,-,N/A,,Clear,300,2013-11-02 13:01:00
8:21 AM,33.8,32.0,93,30.01,10.0,NW,4.6,-,N/A,,Clear,310,2013-11-02 13:21:00
8:41 AM,33.8,32.0,93,30.02,10.0,NW,6.9,-,N/A,,Clear,310,2013-11-02 13:41:00
9:01 AM,35.6,32.0,87,30.03,10.0,WNW,5.8,-,N/A,,Clear,300,2013-11-02 14:01:00
9:21 AM,35.6,32.0,87,30.03,10.0,NW,9.2,-,N/A,,Clear,310,2013-11-02 14:21:00
9:41 AM,37.4,33.8,87,30.03,10.0,NW,8.1,-,N/A,,Clear,310,2013-11-02 14:41:00
10:01 AM,37.4,33.8,87,30.04,10.0,NW,8.1,-,N/A,,Clear,320,2013-11-02 15:01:00
10:21 AM,39.2,33.8,81,30.05,10.0,NNW,12.7,-,N/A,,Clear,330,2013-11-02 15:21:00
10:41 AM,39.2,33.8,81,30.05,10.0,NNW,8.1,-,N/A,,Clear,330,2013-11-02 15:41:00
11:01 AM,39.2,33.8,81,30.06,10.0,NNW,8.1,-,N/A,,Clear,330,2013-11-02 16:01:00
11:21 AM,41.0,33.8,76,30.06,10.0,WNW,9.2,-,N/A,,Clear,300,2013-11-02 16:21:00
11:41 AM,41.0,33.8,76,30.07,10.0,NW,8.1,-,N/A,,Scattered Clouds,320,2013-11-02 16:41:00
12:01 PM,42.8,33.8,70,30.07,10.0,NW,6.9,-,N/A,,Clear,310,2013-11-02 17:01:00
12:21 PM,42.8,33.8,70,30.07,10.0,NNW,6.9,-,N/A,,Clear,330,2013-11-02 17:21:00
12:41 PM,44.6,32.0,61,30.07,10.0,WNW,6.9,-,N/A,,Clear,290,2013-11-02 17:41:00
1:01 PM,44.6,32.0,61,30.07,10.0,West,6.9,-,N/A,,Clear,260,2013-11-02 18:01:00
1:21 PM,46.4,32.0,57,30.07,10.0,WNW,8.1,-,N/A,,Clear,290,2013-11-02 18:21:00
1:41 PM,46.4,33.8,62,30.06,10.0,West,8.1,-,N/A,,Clear,270,2013-11-02 18:41:00
2:01 PM,46.4,33.8,62,30.06,10.0,WNW,5.8,-,N/A,,Clear,290,2013-11-02 19:01:00
2:21 PM,46.4,32.0,57,30.06,10.0,West,8.1,-,N/A,,Clear,280,2013-11-02 19:21:00
2:41 PM,46.4,32.0,57,30.06,10.0,WNW,8.1,-,N/A,,Clear,290,2013-11-02 19:41:00
3:01 PM,48.2,32.0,54,30.06,10.0,West,8.1,-,N/A,,Clear,270,2013-11-02 20:01:00
3:21 PM,48.2,33.8,58,30.06,10.0,WNW,8.1,-,N/A,,Clear,290,2013-11-02 20:21:00
3:41 PM,48.2,33.8,58,30.06,10.0,West,4.6,-,N/A,,Clear,280,2013-11-02 20:41:00
4:01 PM,48.2,33.8,58,30.06,10.0,West,9.2,-,N/A,,Clear,270,2013-11-02 21:01:00
4:21 PM,48.2,33.8,58,30.06,10.0,NW,5.8,-,N/A,,Clear,310,2013-11-02 21:21:00
4:41 PM,46.4,35.6,66,30.07,10.0,West,5.8,-,N/A,,Clear,280,2013-11-02 21:41:00
5:01 PM,46.4,33.8,62,30.08,10.0,WNW,3.5,-,N/A,,Clear,300,2013-11-02 22:01:00
5:21 PM,46.4,35.6,66,30.07,10.0,NNW,2.3,-,N/A,,Clear,330,2013-11-02 22:21:00
5:41 PM,44.6,33.8,66,30.08,10.0,West,3.5,-,N/A,,Clear,260,2013-11-02 22:41:00
6:01 PM,44.6,33.8,66,30.08,10.0,Calm,Calm,-,N/A,,Clear,240,2013-11-02 23:01:00
6:21 PM,39.2,33.8,81,30.08,10.0,Calm,Calm,-,N/A,,Clear,210,2013-11-02 23:21:00
6:41 PM,37.4,33.8,87,30.08,10.0,Calm,Calm,-,N/A,,Clear,220,2013-11-02 23:41:00
7:01 PM,37.4,33.8,87,30.08,10.0,Calm,Calm,-,N/A,,Clear,160,2013-11-03 00:01:00
7:21 PM,35.6,32.0,87,30.08,10.0,Calm,Calm,-,N/A,,Clear,80,2013-11-03 00:21:00
7:41 PM,35.6,32.0,87,30.09,10.0,Calm,Calm,-,N/A,,Clear,120,2013-11-03 00:41:00
8:01 PM,33.8,30.2,87,30.09,10.0,Calm,Calm,-,N/A,,Clear,130,2013-11-03 01:01:00
8:21 PM,33.8,32.0,93,30.09,10.0,South,2.3,-,N/A,,Clear,170,2013-11-03 01:21:00
9:01 PM,35.6,32.0,87,30.08,10.0,SSE,2.3,-,N/A,,Clear,160,2013-11-03 02:01:00
9:21 PM,33.8,32.0,93,30.08,10.0,SSE,2.3,-,N/A,,Clear,150,2013-11-03 02:21:00
9:41 PM,33.8,32.0,93,30.08,10.0,SSE,2.3,-,N/A,,Clear,150,2013-11-03 02:41:00
10:01 PM,33.8,30.2,87,30.09,10.0,SSE,2.3,-,N/A,,Clear,150,2013-11-03 03:01:00
10:21 PM,32.0,30.2,93,30.09,10.0,South,1.2,-,N/A,,Clear,170,2013-11-03 03:21:00
10:41 PM,30.2,30.2,100,30.10,7.0,South,1.2,-,N/A,,Clear,180,2013-11-03 03:41:00
11:01 PM,30.2,28.4,93,30.10,10.0,SSE,2.3,-,N/A,,Clear,160,2013-11-03 04:01:00
11:21 PM,30.2,30.2,100,30.10,7.0,SSE,1.2,-,N/A,,Clear,150,2013-11-03 04:21:00
11:41 PM,30.2,30.2,100,30.09,10.0,SSE,2.3,-,N/A,,Clear,150,2013-11-03 04:41:00